#timestamp,LO_Frequency,Hit,StdDev 
1542542415.1,286046998.3,N
1542542435.9,286046998.1,N
1542542455.7,286046998.3,N
1542542475.5,286046999.6,N
1542542495.4,286046996.7,N
1542542515.2,286046997.8,N
1542542535.0,286046997.6,N
1542542535.9,286046997.6,N
1542542555.8,286046995.3,Y
1542542575.6,286046999.6,P
1542542595.5,286046997.7,P
1542542615.3,286047011.9,P
1542542635.1,286046996.3,N
1542542655.9,286046993.7,N
1542542675.7,286046996.3,N
1542542695.5,286046993.8,N
1542542715.4,286046993.7,N
1542542735.2,286046993.9,N
1542542755.1,286046994.1,N
1542542756.0,286046994.1,N
1542542775.8,286046991.7,N
1542542795.6,286046992.2,N
1542542815.5,286046993.0,N
1542542835.3,286046991.8,N
1542542855.1,286046992.3,N
1542542875.9,286046993.0,N
1542542895.7,286046993.0,N
1542542915.6,286046992.5,N
1542542935.4,286046992.7,N
1542542955.2,286046990.8,N
1542542975.1,286046988.5,N
1542542976.0,286046988.5,N
1542542995.8,286046991.3,N
1542543015.6,286046990.7,N
1542543035.5,286046991.5,N
1542543055.3,286046988.9,N
1542543105.2,286046988.8,E
1542543115.1,286046993.9,N
1542543116.0,286046993.9,P
1542543135.8,286046998.4,P
1542543155.7,286046998.3,N
1542543175.5,286046998.6,N
1542543195.3,286046996.6,N
1542543215.2,286046996.6,N
1542543235.0,286047001.2,N
1542543235.9,286047001.2,N
1542543255.8,286047001.1,N
1542543275.6,286046999.5,N
1542543295.4,286046996.9,N
1542543315.3,286046997.4,N
1542543335.1,286046997.7,N
1542543355.8,286046997.5,N
1542543375.7,286046997.4,N
1542543395.5,286046997.4,N
1542543415.4,286046997.9,N
1542543435.2,286046994.9,N
1542543455.0,286046995.3,N
1542543455.9,286046995.3,N
1542543475.8,286046995.8,N
1542543495.6,286046995.0,N
1542543515.5,286046996.8,N
1542543535.3,286046997.9,N
1542543555.1,286046997.8,N
1542543575.9,286046997.5,N
1542543595.7,286046995.1,N
1542543615.5,286046995.9,N
1542543635.4,286046995.8,N
1542543655.2,286046993.8,Y
1542543675.1,286046999.4,P
1542543676.0,286046999.4,N
1542543695.8,286046998.3,N
1542543715.6,286046997.0,Y
1542543735.5,286046999.4,P
1542543755.3,286046996.9,P
1542543775.2,286046996.9,P
1542543795.9,286046997.4,N
1542543815.7,286046995.1,Y
1542543835.6,286046996.5,P
1542543855.4,286046999.1,N
1542543875.2,286046999.6,N
1542543895.1,286046998.8,N
1542543896.0,286046998.8,N
1542543915.8,286046998.2,N
1542543935.7,286047000.6,N
1542543955.5,286047000.1,N
1542543975.3,286047002.3,N
1542543995.2,286047002.2,N
1542544015.0,286047001.2,N
1542544015.9,286047001.2,N
1542544035.8,286047000.7,N
1542544055.6,286046999.0,N
1542544075.4,286046998.6,N
1542544095.3,286046998.1,N
1542544115.1,286047001.1,N
1542544135.8,286046998.3,N
1542544155.7,286046998.6,N
1542544175.5,286046998.3,N
1542544195.4,286046998.8,N
1542544215.2,286046998.9,N
1542544235.0,286046998.1,N
1542544235.9,286046998.1,N
1542544255.8,286046998.1,N
1542544275.6,286047001.1,N
1542544295.4,286047001.2,N
1542544315.3,286046998.8,N
1542544335.1,286046998.1,N
1542544355.9,286047001.0,N
1542544375.7,286047001.2,N
1542544395.5,286046998.8,N
1542544415.4,286046999.5,N
1542544435.2,286046997.1,N
1542544455.0,286046998.0,N
1542544455.9,286046998.0,N
1542544475.8,286046995.0,Y
1542544495.6,286046997.1,P
1542544515.5,286046997.1,N
1542544535.3,286046996.8,N
1542544555.1,286046996.6,Y
1542544575.9,286047002.7,P
1542544595.7,286047002.4,N
1542544615.5,286047001.7,N
1542544635.4,286047002.1,N
1542544655.2,286047001.6,N
1542544675.1,286047002.7,N
1542544676.0,286047002.7,N
1542544695.8,286047002.3,N
1542544715.6,286047002.5,N
1542544735.5,286047002.0,N
1542544755.3,286047002.1,N
1542544775.1,286047001.4,N
1542544795.9,286047004.2,Y
1542544815.7,286047000.9,P
1542544835.6,286047000.0,N
1542544855.4,286047002.6,P
1542544875.2,286047000.1,N
1542544895.1,286047002.2,N
1542544896.0,286047002.2,N
1542544915.8,286047002.1,N
1542544935.7,286047002.5,N
1542544955.5,286047001.8,N
1542544975.3,286046999.9,N
1542544995.2,286047001.5,N
1542545015.0,286047003.9,Y
1542545015.9,286047003.9,P
1542545035.7,286047004.4,P
1542545055.6,286047001.5,N
1542545075.4,286047002.0,N
1542545095.3,286047002.1,N
1542545115.1,286047000.1,N
1542545116.0,286047000.1,N
1542545135.8,286047002.2,N
1542545155.7,286047001.5,N
1542545175.5,286046999.7,N
1542545195.4,286046999.8,N
1542545215.2,286047002.7,N
1542545235.0,286046999.8,N
1542545235.9,286046999.8,N
1542545255.8,286047000.1,N
1542545275.6,286047002.8,N
1542545295.4,286047002.6,N
1542545315.3,286046999.7,N
1542545335.1,286047002.8,N
1542545355.9,286047000.2,N
1542545375.7,286046999.7,N
1542545395.5,286047000.6,N
1542545415.4,286047000.7,N
1542545435.2,286047000.3,N
1542545455.0,286047002.0,N
1542545455.9,286047002.0,N
1542545475.8,286047002.5,N
1542545495.6,286047000.3,N
1542545515.5,286047000.5,N
1542545535.3,286046999.8,N
1542545555.1,286047002.2,N
1542545575.9,286047002.0,N
1542545595.7,286047002.1,N
1542545615.5,286046999.7,N
1542545635.4,286047001.9,N
1542545655.2,286047001.3,N
1542545675.1,286047002.1,N
1542545676.0,286047002.1,N
1542545695.8,286047002.6,N
1542545715.6,286047004.3,Y
1542545735.5,286047001.9,P
1542545755.3,286047002.4,P
1542545775.2,286047002.6,P
1542545795.9,286047006.0,Y
1542545815.7,286047000.1,P
1542545835.6,286047002.2,N
1542545855.4,286047002.3,N
1542545875.2,286047001.0,N
1542545895.1,286047000.5,N
1542545896.0,286047000.5,N
1542545915.8,286047001.2,N
1542545935.7,286046999.0,N
1542545955.5,286047000.5,N
1542545975.3,286046999.8,N
1542545995.2,286047002.8,N
